Wind_Speed
6 7 6 6 6 7 6 6 5 5 5 4 5 5 5 5 6 6 5 5 5 5 5 5 6 7 8 8 8 7 7 6 6 6 7 6 6 6 7 6 6 7 6 6 6 6 6 6 6
7 7 7 7 7 7 7 6 6 5 5 5 5 5 5 6 6 5 5 6 5 5 6 6 7 7 8 8 8 7 7 6 7 7 7 7 7 7 7 7 7 6 6 6 6 7 7 6 6
7 8 8 8 8 7 7 7 6 6 6 6 5 5 5 6 6 6 6 6 6 6 6 6 7 8 8 8 7 6 6 6 7 8 8 7 7 7 7 7 7 7 7 7 7 7 7 6 6
8 8 9 9 8 8 8 7 6 6 6 6 5 5 6 6 6 6 7 7 6 6 6 7 7 8 8 7 6 6 7 7 7 8 8 8 8 9 8 8 7 7 7 7 7 7 7 6 6
9 9 9 10 9 8 8 7 7 7 7 6 6 6 6 6 6 7 7 7 7 7 7 7 7 7 7 7 6 6 7 6 7 7 8 8 8 8 8 8 8 8 7 7 7 7 7 7 7
10 10 10 10 9 9 9 9 8 8 7 7 7 7 7 7 7 8 8 7 7 7 7 7 7 7 8 7 7 6 7 6 6 7 7 8 8 9 9 9 8 9 8 8 8 8 8 8 8
10 10 10 10 9 9 9 9 9 9 8 8 8 8 8 8 8 8 8 8 8 8 8 8 7 7 7 7 7 8 7 7 7 7 8 8 9 9 10 9 9 9 8 8 8 8 9 9 8
10 10 10 10 10 9 9 9 9 10 10 9 9 9 8 8 9 9 9 9 9 8 8 8 8 7 8 8 8 9 9 8 8 8 8 8 9 10 10 10 9 9 8 8 8 8 8 8 8
10 11 10 10 10 10 9 9 10 10 10 10 10 10 10 9 9 9 9 9 9 9 9 9 9 9 9 9 9 9 9 9 9 9 10 9 9 9 9 9 9 9 8 8 8 8 8 8 8
11 11 10 10 10 10 10 10 10 10 10 10 10 10 10 10 10 10 9 9 10 10 9 9 9 9 9 9 9 9 10 10 10 10 10 10 10 10 10 9 10 9 9 9 9 9 9 9 8
11 11 10 11 11 10 10 10 10 10 10 9 9 10 10 9 10 10 10 10 10 10 10 10 10 10 10 9 9 9 10 10 10 10 10 10 10 10 10 10 9 9 9 9 9 10 10 9 9
11 11 11 11 11 11 11 11 11 11 10 10 10 10 10 9 10 10 10 10 11 11 11 11 10 10 10 9 9 10 10 10 10 10 10 10 10 10 10 10 9 9 10 10 10 10 10 10 9
10 10 11 12 11 11 11 11 12 11 11 10 10 10 10 10 10 9 10 10 10 10 10 11 10 10 10 10 10 10 10 10 10 10 10 10 9 9 10 10 10 10 10 11 11 11 10 10 10
10 10 11 11 11 12 12 12 11 11 11 12 11 11 10 10 10 10 10 11 11 11 10 11 11 11 11 11 10 10 10 10 9 9 9 9 9 9 10 10 11 10 10 10 10 11 10 10 10
10 11 11 11 12 12 12 12 11 11 12 11 11 11 11 11 10 11 11 11 10 11 11 11 12 12 11 11 11 10 10 10 10 10 9 9 9 9 10 10 10 11 11 10 11 11 11 10 10
10 11 11 12 12 12 12 12 12 12 12 12 12 11 11 11 11 11 11 11 11 11 11 11 11 11 12 11 11 11 11 10 10 10 10 10 10 10 10 10 11 11 11 11 12 11 11 11 10
10 11 11 12 12 12 12 12 12 12 12 12 12 12 12 12 12 11 11 11 11 11 11 11 11 12 12 11 11 11 11 11 12 12 12 11 11 11 11 11 11 11 12 12 12 11 12 12 11
10 10 11 11 11 12 12 12 13 13 12 12 13 13 13 13 12 12 12 12 12 12 11 11 11 11 11 11 12 12 12 12 13 12 12 12 12 12 12 12 12 12 12 12 12 12 13 12 12
10 11 11 11 12 12 12 12 12 12 13 12 13 13 13 13 13 13 12 12 13 12 12 12 12 11 11 12 12 13 13 13 13 13 13 13 13 13 13 12 12 11 11 12 12 12 12 12 12
10 11 11 11 12 12 11 11 12 12 12 12 12 12 13 12 12 12 12 12 12 12 12 12 12 12 12 12 13 13 13 13 13 14 14 14 14 14 14 13 12 12 12 12 12 12 13 13 13
11 12 12 12 12 12 12 11 12 12 12 12 12 12 12 12 12 12 12 12 13 13 13 12 12 12 13 13 13 13 13 13 13 13 13 14 14 14 13 13 13 13 13 12 12 13 13 13 13
12 12 12 13 13 12 12 12 12 12 11 11 12 12 12 12 12 12 13 13 13 13 14 13 14 14 14 14 14 14 14 13 13 13 14 14 14 15 15 15 15 15 14 14 13 13 13 13 13
13 13 13 12 12 12 12 12 10 11 11 11 11 11 11 12 12 13 13 14 14 14 14 14 15 15 15 16 15 15 15 14 14 14 14 14 14 15 15 15 15 15 15 15 14 14 14 13 13
13 13 13 13 12 12 12 12 11 11 11 11 11 12 12 12 13 13 14 14 15 15 15 15 16 16 16 15 15 15 15 15 15 15 15 15 15 15 15 15 15 15 16 15 14 15 14 14 14
13 13 13 13 13 13 12 12 11 11 11 11 11 12 13 12 12 13 14 14 15 15 16 16 17 17 17 17 16 16 16 16 15 15 15 15 15 15 15 15 15 15 15 15 15 16 16 15 15
13 13 13 14 14 12 11 11 11 11 11 11 11 12 13 13 13 13 13 14 14 14 15 16 16 17 17 17 17 16 16 17 16 15 16 16 16 16 15 15 15 16 16 16 16 16 16 16 15
13 13 13 14 13 13 12 11 10 11 12 12 12 13 14 13 13 14 14 14 15 15 15 16 16 17 17 17 16 15 16 16 16 17 17 17 16 16 16 16 15 16 16 16 16 17 16 16 15
13 13 13 14 14 13 12 12 11 12 12 12 12 13 14 14 14 14 15 16 16 16 16 17 17 17 16 16 16 16 16 16 16 16 16 17 17 17 18 18 18 17 16 16 16 16 16 16 15
14 14 14 14 14 14 13 12 12 13 13 14 14 14 15 15 15 15 16 17 17 17 17 17 18 18 17 17 17 17 16 16 16 16 17 17 18 17 18 19 19 19 18 17 17 17 17 17 17
15 15 15 14 14 14 15 13 13 13 14 15 15 16 16 17 18 17 17 17 17 17 18 18 18 18 18 18 18 18 18 17 17 17 18 18 18 18 19 19 20 20 20 20 19 19 19 19 19
Wind_Direction
261 264 269 273 275 274 268 269 267 267 266 269 280 291 293 293 289 278 277 284 283 282 287 292 300 303 307 307 306 300 292 286 290 293 294 293 289 288 294 297 301 304 304 299 293 291 288 289 289
262 262 267 272 274 278 269 264 267 265 264 266 276 289 296 297 294 284 280 283 280 280 285 291 301 303 305 305 305 297 287 283 286 285 285 289 286 283 287 291 294 296 298 295 291 290 283 281 283
263 263 265 271 276 279 276 269 267 273 268 269 277 287 294 298 293 286 284 280 277 281 287 290 299 303 306 308 306 296 281 281 287 285 278 281 286 285 283 285 290 287 288 291 289 286 283 277 277
265 265 266 269 273 278 277 274 267 272 267 267 279 287 296 295 292 289 285 279 279 281 286 290 296 300 304 308 309 294 283 284 293 289 278 276 282 283 284 283 286 283 283 285 284 281 280 275 273
269 270 271 271 272 274 272 272 268 265 267 266 275 282 292 293 291 289 291 284 281 282 285 288 293 295 297 301 300 294 288 294 297 293 283 277 283 284 282 283 284 281 280 282 280 275 272 273 272
271 272 272 275 270 272 269 268 269 272 273 275 280 282 285 288 289 290 291 287 284 286 287 288 290 293 295 294 290 286 286 295 298 297 286 280 283 284 282 281 282 280 277 278 277 269 267 269 269
270 271 274 276 272 271 270 270 271 272 274 273 279 283 285 286 287 288 287 286 286 286 286 288 287 293 296 296 293 285 283 291 294 290 286 282 283 283 284 282 280 279 278 276 273 270 269 268 267
271 272 275 274 273 270 270 270 270 273 276 279 282 284 284 284 284 283 284 284 286 286 286 286 288 289 288 290 289 286 288 292 294 291 287 282 283 282 283 285 284 281 275 272 270 267 265 266 265
272 271 273 275 273 271 270 270 270 273 278 279 280 283 284 284 281 279 280 281 284 285 283 285 286 289 288 288 288 288 287 288 289 290 287 285 284 285 285 283 283 277 269 266 265 261 262 262 262
270 271 272 273 272 271 271 272 273 272 276 277 280 283 283 281 278 278 277 277 282 284 284 285 286 289 289 288 286 285 286 285 285 290 286 284 282 281 281 280 279 273 267 264 262 261 262 265 263
270 272 272 272 269 268 271 273 276 277 280 279 282 283 283 283 278 276 275 277 280 282 285 285 286 289 290 289 287 285 284 285 286 289 289 287 283 280 280 279 277 272 268 264 262 260 263 268 267
273 273 271 270 267 269 274 276 277 278 280 280 280 281 283 282 277 278 277 277 280 280 283 288 285 288 289 287 287 287 288 286 284 285 285 284 282 278 277 276 273 269 267 264 261 259 260 265 269
276 271 268 268 268 273 275 273 276 277 279 280 279 279 278 280 281 281 276 277 279 278 278 279 280 282 288 286 284 283 284 286 284 285 284 282 280 278 278 273 269 264 262 261 257 257 259 262 265
275 272 270 272 273 272 270 271 275 273 275 277 278 279 277 277 280 280 278 279 277 275 272 271 273 278 282 284 280 282 281 282 281 284 281 280 280 279 279 274 269 264 260 257 256 259 260 262 263
274 270 269 271 272 272 273 272 274 272 273 274 275 277 277 276 276 276 277 276 275 273 270 268 270 272 275 278 279 279 282 277 275 277 280 282 282 283 280 275 270 263 258 255 258 259 259 261 262
275 273 274 271 269 270 272 272 272 272 272 272 271 272 273 275 276 274 274 273 272 271 271 272 271 271 271 273 276 279 281 281 279 275 277 280 282 282 278 274 271 265 259 256 255 257 260 263 265
278 276 276 273 272 271 270 270 269 271 272 272 271 272 271 273 273 273 274 272 271 274 271 271 273 271 269 271 275 276 276 275 277 277 277 277 276 278 278 276 272 266 260 258 256 257 261 262 265
279 277 277 275 275 276 274 270 271 273 271 268 270 271 271 271 271 274 276 275 272 274 272 274 273 268 265 268 272 273 274 274 274 276 278 277 276 274 274 277 274 267 263 261 258 258 259 260 262
279 277 278 278 277 276 276 276 276 276 275 272 271 270 270 270 271 273 275 273 272 274 274 273 275 272 267 268 269 270 273 273 272 272 273 274 273 271 270 270 270 266 265 262 260 259 257 258 261
281 279 277 277 277 277 276 280 278 276 278 275 272 271 271 272 272 271 271 271 272 274 276 276 275 273 272 270 272 274 275 277 274 272 272 270 269 271 271 268 267 266 264 261 260 260 261 261 260
281 279 277 279 279 278 280 282 279 279 279 277 276 274 273 273 271 270 273 275 275 276 278 278 276 273 272 271 271 275 278 281 278 275 272 270 269 271 270 268 265 266 265 264 262 259 261 262 261
282 284 282 281 284 284 285 286 282 280 279 279 280 276 272 271 273 274 274 275 277 276 278 278 279 275 272 273 273 275 278 280 278 274 273 272 271 271 270 268 264 263 264 265 265 262 261 261 262
287 285 286 286 287 286 287 289 288 283 284 282 281 278 277 276 275 276 278 277 277 277 278 279 280 278 275 276 275 277 279 281 279 274 271 271 272 272 272 270 266 262 263 264 264 261 260 260 261
292 289 289 289 290 292 293 292 292 293 288 283 279 278 278 277 274 277 279 280 278 277 278 278 279 280 279 277 280 277 279 281 281 277 271 271 271 271 271 271 269 266 262 262 261 260 258 259 261
294 292 293 294 293 295 295 291 292 293 289 284 281 279 279 275 276 281 282 281 280 279 278 277 278 279 279 278 280 278 278 278 278 277 272 270 270 270 269 269 268 265 262 259 259 261 259 261 264
293 291 290 290 294 296 294 293 294 292 290 289 286 284 280 275 278 283 286 285 283 282 282 280 279 280 280 280 280 280 279 277 278 278 273 270 268 266 267 269 266 263 262 261 262 262 262 262 264
290 290 288 287 290 293 292 292 293 292 290 288 288 286 282 277 277 281 285 287 286 286 287 285 284 283 282 282 282 280 279 279 277 275 271 269 269 268 267 267 266 265 263 261 263 263 263 263 264
286 287 285 289 292 292 292 291 293 291 289 288 286 284 282 278 276 278 283 286 288 289 289 287 285 284 284 283 283 281 279 278 275 272 271 270 268 268 267 265 264 263 265 266 266 263 262 261 262
285 284 285 288 289 291 291 289 290 290 288 287 286 286 286 282 281 282 282 284 287 287 288 286 283 282 282 282 282 281 281 280 276 274 275 273 270 268 266 264 263 264 266 263 262 262 260 261 262
282 283 284 285 286 288 290 289 287 287 285 284 284 285 285 285 284 283 283 283 285 286 287 286 284 282 280 280 281 282 283 280 277 275 273 272 271 271 269 268 266 263 264 263 263 262 262 262 264
Height
5865 5865 5866 5867 5867 5867 5867 5867 5867 5867 5867 5867 5866 5866 5866 5866 5867 5869 5867 5866 5865 5865 5865 5865 5865 5864 5862 5860 5858 5857 5858 5859 5860 5860 5861 5861 5862 5862 5862 5862 5862 5862 5862 5862 5862 5862 5862 5862 5862
5864 5864 5866 5866 5866 5866 5866 5866 5866 5866 5866 5866 5865 5865 5865 5865 5865 5864 5864 5864 5864 5864 5864 5864 5863 5862 5861 5859 5856 5855 5856 5857 5858 5859 5859 5860 5860 5860 5860 5861 5861 5861 5861 5861 5860 5861 5861 5861 5861
5863 5864 5865 5865 5864 5865 5865 5865 5865 5865 5865 5865 5865 5865 5864 5864 5864 5863 5863 5863 5863 5863 5863 5863 5862 5861 5860 5858 5855 5854 5855 5856 5856 5856 5857 5858 5859 5859 5859 5859 5859 5859 5859 5859 5859 5859 5859 5860 5860
5862 5863 5864 5864 5863 5864 5864 5864 5864 5864 5864 5864 5864 5864 5863 5863 5863 5863 5862 5862 5862 5862 5862 5861 5861 5860 5859 5858 5856 5854 5854 5855 5854 5853 5854 5855 5857 5857 5857 5857 5858 5858 5858 5858 5858 5858 5858 5858 5858
5861 5862 5862 5862 5862 5863 5863 5863 5863 5863 5863 5862 5862 5862 5862 5862 5862 5861 5861 5861 5861 5861 5860 5860 5860 5859 5858 5857 5856 5855 5855 5854 5853 5851 5851 5853 5855 5855 5856 5856 5856 5856 5856 5856 5856 5856 5857 5857 5857
5860 5860 5861 5861 5861 5862 5862 5862 5862 5862 5862 5861 5861 5861 5861 5861 5861 5860 5860 5860 5860 5859 5859 5859 5858 5858 5857 5856 5856 5855 5854 5853 5852 5851 5851 5852 5853 5854 5854 5854 5854 5854 5854 5855 5854 5855 5855 5855 5856
5859 5859 5859 5859 5860 5860 5860 5860 5860 5860 5860 5860 5860 5860 5860 5859 5859 5859 5859 5858 5858 5858 5858 5857 5857 5856 5856 5855 5854 5854 5853 5852 5852 5851 5851 5852 5852 5852 5852 5852 5852 5852 5852 5853 5853 5853 5853 5854 5854
5856 5857 5857 5857 5858 5858 5859 5858 5858 5858 5858 5859 5858 5858 5858 5858 5858 5857 5857 5857 5856 5856 5856 5856 5855 5855 5854 5853 5853 5852 5852 5851 5851 5851 5850 5850 5850 5850 5850 5850 5850 5850 5851 5851 5851 5851 5852 5852 5852
5854 5856 5855 5856 5856 5856 5856 5856 5857 5856 5856 5856 5856 5856 5856 5856 5856 5856 5856 5855 5855 5854 5854 5854 5853 5853 5852 5852 5851 5851 5850 5850 5850 5849 5849 5848 5848 5849 5849 5849 5848 5848 5849 5849 5849 5849 5850 5850 5850
5852 5853 5854 5854 5854 5854 5854 5855 5855 5855 5854 5854 5854 5854 5854 5854 5854 5854 5854 5853 5853 5852 5852 5852 5851 5851 5850 5850 5849 5849 5848 5848 5848 5847 5847 5846 5846 5846 5846 5846 5846 5846 5847 5847 5847 5847 5848 5848 5848
5850 5851 5851 5852 5852 5852 5852 5852 5852 5853 5852 5852 5852 5852 5852 5852 5852 5851 5851 5851 5851 5850 5850 5849 5849 5849 5848 5848 5847 5846 5846 5846 5845 5845 5844 5844 5844 5844 5844 5844 5844 5844 5845 5845 5845 5845 5846 5846 5846
5848 5848 5849 5849 5849 5850 5850 5850 5850 5850 5851 5850 5850 5850 5849 5849 5849 5849 5849 5849 5848 5848 5847 5847 5847 5847 5846 5846 5845 5844 5844 5843 5843 5842 5842 5842 5842 5842 5842 5842 5842 5842 5842 5843 5843 5843 5844 5844 5844
5846 5846 5846 5846 5847 5847 5847 5848 5848 5848 5848 5848 5848 5847 5847 5847 5847 5847 5846 5846 5846 5845 5845 5845 5844 5844 5844 5843 5843 5842 5841 5841 5840 5840 5839 5839 5839 5839 5839 5839 5839 5839 5840 5840 5841 5841 5841 5842 5842
5844 5844 5844 5844 5844 5845 5845 5846 5846 5846 5846 5846 5845 5845 5845 5845 5844 5844 5844 5844 5843 5843 5842 5842 5842 5841 5841 5841 5840 5839 5838 5838 5838 5837 5837 5837 5837 5837 5837 5837 5837 5837 5837 5838 5838 5838 5839 5839 5840
5841 5842 5842 5842 5842 5842 5843 5844 5843 5843 5843 5843 5843 5843 5842 5842 5842 5841 5841 5841 5840 5840 5840 5839 5839 5838 5838 5838 5837 5837 5836 5836 5835 5835 5835 5834 5834 5834 5834 5834 5834 5834 5835 5835 5835 5836 5836 5837 5837
5840 5840 5840 5840 5840 5840 5842 5842 5841 5840 5840 5840 5840 5840 5839 5839 5839 5838 5838 5838 5838 5837 5837 5836 5836 5836 5835 5835 5835 5834 5834 5833 5833 5832 5832 5832 5832 5831 5831 5831 5831 5831 5832 5832 5833 5833 5834 5834 5835
5838 5838 5838 5838 5837 5838 5839 5838 5838 5838 5838 5837 5837 5837 5837 5836 5836 5836 5836 5835 5835 5835 5834 5834 5833 5833 5833 5832 5832 5831 5831 5830 5830 5829 5829 5829 5829 5828 5828 5828 5828 5828 5828 5829 5830 5830 5831 5832 5832
5836 5835 5835 5835 5835 5835 5835 5835 5835 5835 5835 5834 5834 5834 5834 5834 5833 5833 5833 5832 5832 5832 5831 5831 5830 5830 5829 5829 5829 5828 5828 5827 5827 5826 5826 5825 5825 5825 5825 5825 5825 5825 5825 5826 5827 5827 5828 5828 5829
5833 5833 5833 5833 5832 5832 5832 5832 5832 5831 5831 5831 5831 5831 5831 5830 5830 5830 5830 5830 5829 5829 5829 5828 5828 5827 5827 5826 5826 5825 5824 5824 5823 5823 5822 5822 5822 5821 5821 5821 5821 5822 5822 5823 5824 5824 5825 5825 5826
5831 5831 5830 5830 5829 5829 5829 5829 5829 5828 5828 5828 5828 5828 5827 5827 5827 5827 5827 5827 5826 5826 5826 5826 5825 5824 5824 5823 5822 5822 5821 5820 5819 5819 5818 5818 5818 5818 5818 5818 5818 5819 5819 5820 5820 5821 5821 5822 5822
5829 5829 5828 5827 5827 5826 5826 5827 5826 5825 5825 5825 5825 5824 5824 5824 5824 5824 5824 5823 5824 5823 5823 5823 5822 5821 5821 5820 5819 5818 5817 5816 5816 5815 5814 5814 5814 5814 5814 5814 5815 5815 5816 5816 5817 5818 5818 5819 5819
5826 5825 5825 5824 5824 5824 5824 5824 5824 5823 5822 5822 5822 5821 5821 5821 5821 5821 5821 5821 5820 5820 5820 5819 5818 5818 5817 5817 5816 5815 5813 5813 5812 5811 5811 5810 5810 5810 5810 5810 5811 5811 5812 5813 5813 5814 5815 5815 5816
5823 5822 5822 5821 5821 5821 5821 5821 5822 5820 5819 5819 5819 5819 5819 5818 5818 5818 5817 5817 5817 5816 5816 5815 5815 5814 5814 5813 5812 5811 5810 5809 5808 5807 5807 5807 5806 5806 5806 5806 5806 5807 5808 5809 5809 5810 5811 5812 5812
5820 5820 5819 5819 5819 5819 5819 5818 5819 5818 5817 5817 5816 5816 5815 5815 5815 5814 5814 5813 5813 5813 5812 5811 5811 5811 5810 5809 5808 5807 5806 5805 5804 5803 5803 5803 5803 5802 5802 5802 5802 5803 5804 5805 5805 5806 5807 5808 5809
5818 5818 5817 5816 5816 5817 5816 5815 5816 5815 5815 5814 5814 5813 5812 5812 5812 5811 5811 5810 5810 5809 5808 5808 5807 5807 5806 5805 5804 5803 5802 5802 5801 5800 5799 5799 5799 5799 5798 5798 5799 5799 5800 5801 5802 5803 5803 5804 5805
5816 5815 5816 5815 5814 5814 5813 5813 5814 5812 5812 5811 5811 5810 5810 5809 5809 5808 5807 5807 5806 5805 5804 5804 5803 5802 5801 5801 5800 5799 5798 5797 5797 5796 5795 5795 5795 5795 5794 5795 5795 5795 5796 5797 5798 5799 5800 5800 5801
5813 5812 5812 5812 5811 5811 5811 5811 5811 5810 5809 5808 5808 5807 5807 5806 5805 5805 5804 5803 5803 5802 5801 5800 5799 5798 5797 5796 5795 5795 5794 5793 5793 5792 5791 5791 5790 5791 5791 5791 5791 5792 5792 5793 5794 5795 5795 5796 5796
5810 5810 5809 5808 5807 5807 5808 5808 5808 5807 5806 5805 5804 5804 5803 5802 5801 5801 5801 5800 5799 5798 5797 5796 5795 5794 5793 5792 5791 5790 5790 5789 5788 5788 5787 5787 5787 5786 5787 5787 5787 5787 5788 5788 5789 5790 5791 5791 5792
5807 5807 5806 5805 5805 5804 5804 5807 5805 5803 5802 5802 5801 5800 5799 5798 5797 5797 5796 5795 5795 5793 5793 5791 5790 5789 5788 5787 5787 5786 5785 5785 5784 5784 5783 5783 5782 5782 5782 5782 5782 5783 5784 5784 5785 5785 5786 5787 5787
5803 5803 5802 5802 5802 5801 5801 5804 5801 5800 5799 5798 5797 5796 5795 5794 5793 5792 5792 5791 5790 5789 5788 5787 5785 5784 5783 5783 5782 5782 5781 5780 5780 5779 5779 5778 5778 5777 5777 5777 5777 5778 5778 5779 5780 5780 5781 5781 5782